Meteo Giornale » Osservazioni meteo Francia » La Rochelle
ore: 20:00 - Osservazioni Meteo La Rochelle
Lat. 46° 9' N Lon. 1° 9' W Alt. 4 metri s.l.m.
20 °C
Sereno
Temp. 24 Ore
15 °C
23 °C
Ovest/Nord-Ovest
22.2 Km/h
Dew point 14 °C
Umidità 68 %
Visibilità 10 Km
Il sole sorge alle ore 07:25
Il sole tramonta alle ore 20:43
| Data e Ora | Cielo e Fenomeni | T °C | DP °C | Um. % | Pres. hPa | Vis. km | Vento km/h | |
|---|---|---|---|---|---|---|---|---|
| Oggi h: 20:00 | Sereno | 20 | 14 | 68 | 1021 | 10 | O/NO 22.2 | |
| Oggi h: 19:30 | Sereno | 21 | 14 | 64 | 1021 | 10 | O/NO 20.3 | |
| Oggi h: 19:00 | Sereno | 21 | 14 | 64 | 1022 | 10 | O/NO 24 | |
| Oggi h: 18:30 | Sereno | 22 | 14 | 60 | 1022 | 10 | O/NO 25.9 | |
| Oggi h: 18:00 | Sereno | 22 | 15 | 64 | 1021 | 10 | O/NO 22.2 | |
| Oggi h: 17:30 | Sereno | 22 | 14 | 60 | 1021 | 10 | NO 24 | |
| Oggi h: 17:00 | Sereno | 22 | 16 | 68 | 1021 | 10 | NO 20.3 | |
| Oggi h: 16:30 | Sereno | 22 | 15 | 64 | 1021 | 10 | O/NO 16.7 | |
| Oggi h: 16:00 | Sereno | 22 | 15 | 64 | 1021 | 10 | O/NO 16.7 | |
| Oggi h: 15:30 | Sereno | 23 | 13 | 53 | 1022 | 10 | O/NO 11.1 | |
| Oggi h: 15:00 | Sereno | 22 | 13 | 56 | 1022 | 10 | O/NO 11.1 | |
| Oggi h: 14:30 | Sereno | 21 | 12 | 56 | 1022 | 10 | NO 11.1 | |
| Oggi h: 14:00 | Sereno | 21 | 13 | 60 | 1023 | 10 | NO 13 | |
| Oggi h: 13:30 | Sereno | 21 | 13 | 60 | 1023 | 10 | N/NO 13 | |
| Oggi h: 13:00 | Sereno | 21 | 14 | 64 | 1023 | 10 | NO 11.1 | |
| Oggi h: 12:30 | Sereno | 21 | 14 | 64 | 1023 | 10 | N/NO 13 | |
| Oggi h: 12:00 | Sereno | 20 | 14 | 68 | 1023 | 10 | N/NO 9.3 | |
| Oggi h: 11:30 | Nuvoloso | 21 | 14 | 64 | 1023 | 10 | O/NO 9.3 | |
| Oggi h: 11:00 | Sereno | 21 | 15 | 68 | 1023 | 10 | N 5.5 | |
| Oggi h: 10:30 | Sereno | 19 | 15 | 77 | 1023 | 10 | N 5.5 | |
| Oggi h: 10:00 | Sereno | 19 | 16 | 82 | 1022 | 10 | NE 7.4 | |
| Oggi h: 09:30 | Sereno | 18 | 15 | 82 | 1022 | 10 | NE 9.3 | |
| Oggi h: 09:00 | Sereno | 17 | 16 | 93 | 1022 | 10 | N 0 | |
| Oggi h: 08:30 | Sereno | 16 | 15 | 93 | 1022 | 10 | N 3.7 | |
| Oggi h: 08:00 | Sereno | 15 | 14 | 93 | 1022 | 10 | N 5.5 | |
| Oggi h: 07:30 | Sereno | 15 | 14 | 93 | 1022 | 10 | N 5.5 | |
| Oggi h: 07:00 | Sereno | 15 | 13 | 87 | 1022 | 10 | N 5.5 | |
| Oggi h: 06:30 | Sereno | 15 | 14 | 93 | 1022 | 10 | N 5.5 | |
| Oggi h: 06:00 | Sereno | 15 | 14 | 93 | 1022 | 10 | E/NE 7.4 | |
| Oggi h: 05:30 | Poco Nuvoloso | 15 | 14 | 93 | 1022 | 10 | E 7.4 | |
| Oggi h: 05:00 | Molto Nuvoloso | 15 | 14 | 93 | 1022 | 10 | N 5.5 | |
| Oggi h: 04:30 | Sereno | 16 | 14 | 87 | 1022 | 10 | N 3.7 | |
| Oggi h: 04:00 | Sereno | 16 | 15 | 93 | 1022 | 10 | N 5.5 | |
| Oggi h: 03:30 | Poco Nuvoloso | 16 | 14 | 87 | 1022 | 10 | NE 7.4 | |
| Oggi h: 03:00 | Poco Nuvoloso | 16 | 15 | 93 | 1023 | 10 | N 5.5 | |
| Oggi h: 02:30 | Sereno | 17 | 14 | 82 | 1023 | 10 | N 5.5 | |
| Oggi h: 02:00 | Sereno | 17 | 15 | 88 | 1023 | 10 | N 5.5 | |
| Oggi h: 01:30 | Poco Nuvoloso | 18 | 15 | 82 | 1023 | 10 | N 9.3 | |
| Oggi h: 01:00 | Poco Nuvoloso | 18 | 15 | 82 | 1023 | 10 | N 9.3 | |
| Oggi h: 00:30 | Coperto | 18 | 15 | 82 | 1023 | 10 | N 7.4 | |
| Oggi h: 00:00 | Molto Nuvoloso | 19 | 16 | 82 | 1023 | 10 | NO 11.1 | |
| Ieri h: 23:30 | Poco Nuvoloso | 19 | 15 | 77 | 1023 | 10 | O/NO 13 | |
| Ieri h: 23:00 | Poco Nuvoloso | 19 | 15 | 77 | 1022 | 10 | O/NO 14.8 | |
| Ieri h: 22:30 | Sereno | 19 | 15 | 77 | 1022 | 10 | O/NO 14.8 | |
| Ieri h: 22:00 | Poco Nuvoloso | 19 | 15 | 77 | 1022 | 10 | O/NO 16.7 | |
| Ieri h: 21:30 | Sereno | 19 | 14 | 72 | 1022 | 10 | O/NO 16.7 | |
| Ieri h: 21:00 | Sereno | 20 | 14 | 68 | 1022 | 10 | O/NO 18.5 | |



